Location: Indian Tree Observatory
(39.4030°N, 104.5929°W)
Time: 19:51:34
(UTC-06:00)

Envisat - Visible Passes

Search period start: 23 September 2018 00:00
Search period end: 03 October 2018 00:00
Orbit: 764 x 766 km, 98.2° (Epoch: 23 September)

Date Brightness Start Highest point End Pass type
(mag) Time Alt. Az. Time Alt. Az. Time Alt. Az.
23 Sep 4.3 20:37:03 10° SSW 20:41:47 40° W 20:46:33 10° NNW visible
24 Sep 3.0 19:59:55 10° SSE 20:04:59 89° E 20:10:05 10° NNW visible
25 Sep 3.5 19:23:42 10° SE 19:28:23 40° ENE 19:33:05 10° N visible
25 Sep 5.2 21:03:34 10° SW 21:07:31 23° W 21:11:28 10° NW visible
26 Sep 3.8 20:25:39 10° S 20:30:34 51° W 20:35:31 10° NNW visible
27 Sep 2.9 19:48:48 10° SSE 19:53:49 71° ENE 19:58:53 10° N visible
27 Sep 5.9 21:31:16 10° WSW 21:33:19 12° W 21:35:23 10° WNW visible
28 Sep 3.7 19:12:50 10° SE 19:17:16 32° ENE 19:21:43 10° N visible
28 Sep 4.9 20:51:54 10° SSW 20:56:15 28° W 21:00:37 10° NW visible
29 Sep 3.3 20:14:21 10° S 20:19:22 66° WSW 20:24:26 10° NNW visible
30 Sep 3.1 19:37:45 10° SSE 19:42:41 55° ENE 19:47:38 10° N visible
30 Sep 5.7 21:18:57 10° SW 21:22:02 16° W 21:25:06 10° NW visible
01 Oct 4.0 19:02:06 10° ESE 19:06:11 25° ENE 19:10:18 10° NNE visible
01 Oct 4.4 20:40:22 10° SSW 20:45:00 36° W 20:49:41 10° NNW visible
02 Oct 3.0 20:03:07 10° SSE 20:08:11 83° WSW 20:13:17 10° NNW visible
